Location: Debolt
(55.2626°N, 118.0981°W)
Time: 10:37:47
(UTC+00:00)

Oscar 11 - Pass Details

Date: 16 May 2025
Orbit: 595 x 604 km, 97.8° (Epoch: 19 June)

Event Time Altitude Azimuth Distance (km) Brightness Sun altitude
Rises 10:25:15 0° 25° (NNE) 2,855 12.5 -8.5°
Reaches altitude 10° 10:28:01 10° 45° (NE) 1,948 11.3 -8.2°
Maximum altitude 10:30:58 18° 89° (E) 1,483 9.6 -8.0°
Drops below altitude 10° 10:33:54 10° 133° (SE) 1,940 9.6 -7.7°
Sets 10:36:39 0° 153° (SSE) 2,839 10.2 -7.4°
